GSAT0225 (GALILEO 29)

Last updated on Sun Jun 21 2026 00:02:55 GMT+0000 (Coordinated Universal Time)

1 59598U 24079A 26170.44860191 -.00000013 00000+0 00000+0 0 9990 2 59598 55.1213 101.0165 0001533 302.7942 230.7595 1.70473881 13350
UTC large
Height (km)
Speed (km/s)
/
Latitude / Longitude
Inclination (degrees)
Orbital Period (minutes)
Azimuth
Elevation
Range (km)
Doppler Factor

Next 0 passes for location: London (51.5072 / 0.1276)

No passes found over London.
GSAT0225 (GALILEO 29)